Погода в Блечепсине

Россия / Республика Адыгея     44°49′17″N   40°29′46″E
темп.,
°C
ветер,
м/с
пор.,
м/с
влажн.,
%
обл.,
%
осадки,
мм/ч
давл.,
гПа
погр.,
м
27 января, чт
чт2700:00−3сз1299100 0.1 101970
03:00−3зсз1298100 0.6 101971
06:00−5з119899 0.2 101918
09:00−3сз1297100 0.6 1020131
12:00−2зсз239283 0.2 1020421
15:00−1зсз3586100 0.3 1020588
18:00−6юз119277 0.0 102110
21:00−6юз229697 0.0 102216
28 января, пт
пт2800:00−3зюз2696100 0.1 1022254
03:00−4юз1297100 0.2 102279
06:00−3ю0197100 0.3 102162
09:00−2ююв1295100 0.5 1022128
12:000ююз259797 0.1 1021514
15:00+1юз159898 0.3 1020250
18:00−3ююв229099 0.1 102023
21:00−4ююв3388100 0.1 102037
29 января, сб
сб2900:00−5ююз2290100 0.0 102017
03:00−5ююв338598 0.0 102031
06:00−3ю2285100 0.0 101938
09:00−3ююз2286100 0.0 102019
12:00+1ю239955 0.0 101983
15:00+1ю22100100 0.0 101940
18:000зюз3786100 0.0 1020175
21:00−1юз3690100 0.0 1021140
30 января, вс
вс3000:00−1ю2394100 0.0 102271
03:00−1юз269699 0.1 1021325
06:000юз2697100 0.6 1021399
09:00−1ю359499 1.3 1020212
12:00+1ююз129796 0.0 1018143
15:00+1вюв239959 0.0 101690
18:00−1юв3389100 0.0 101448
21:00−1ююв3388100 0.0 101247
31 января, пн
пн3100:00−1ю2290100 0.0 101026
03:00−1ююз1287100 0.0 100929
06:00−1юз2486100 0.0 100882
09:00+3юз8178521 0.1 1009641
12:00+4зюз916836 1.2 1011973
15:00+4зюз916848 1.4 10111071
18:00+2зюз61478100 0.3 1012469
21:00+1зюз51196100 0.5 1013458